Regional Weather Roundup
Issued by NWS

Home | Current Version | Previous Version | Text Only | Print | Product List | Glossary Off
Versions: 1 2 3 4 5 6 7 8 9 10 11 12 13 14 15 16 17 18 19 20 21 22 23 24 25 26 27 28 29 30 31 32 33 34 35 36 37 38 39 40 41 42 43 44 45 46 47 48 49 50

000
ASUS43 KFSD 172302
RWRSD

WEATHER ROUNDUP FOR SOUTH DAKOTA
NATIONAL WEATHER SERVICE SIOUX FALLS SD
500 PM CST WED DEC 17 2014

NOTE: "FAIR" INDICATES FEW OR NO CLOUDS BELOW 12,000 FEET WITH NO
SIGNIFICANT WEATHER AND/OR OBSTRUCTIONS TO VISIBILITY.


SDZ001>005-009-010-012>017-180000-
NORTHWEST AND NORTH CENTRAL SOUTH DAKOTA

CITY           SKY/WX    TMP DP  RH WIND       PRES   REMARKS
BUFFALO          N/A     20  17  88 S10       29.95R WCI   9
FAITH            N/A     18  15  88 E10       30.08R WCI   6
MOBRIDGE       CLOUDY    20  12  71 SE12      30.16S WCI   8
$$

SDZ012>016-024>037-041>051-057-063-072>074-180000-
SOUTHWEST AND SOUTH CENTRAL SOUTH DAKOTA

CITY           SKY/WX    TMP DP  RH WIND       PRES   REMARKS
RAPID CTY ARPT CLOUDY    23  20  88 NE8       30.00R WCI  14
PIERRE         CLOUDY    18  14  84 SE12      30.17R WCI   5
CUSTER         CLEAR     30  18  60 VRB6      29.86R WCI  24
PHILIP         CLOUDY    24  19  81 E10       30.08S WCI  14
PINE RIDGE     MOCLDY    25  20  81 S10       29.98R WCI  15
$$

SDZ004>011-016>023-039-040-180000-
NORTHEAST SOUTH DAKOTA

CITY           SKY/WX    TMP DP  RH WIND       PRES   REMARKS
ABERDEEN       CLEAR     14   7  73 SE7       30.27S WCI   4
WATERTOWN      PTCLDY    14  10  84 CALM      30.24R
SISSETON         N/A     12   9  87 NW3       30.29S
$$

SDZ017-020-022-023-036>040-048>070-180000-
SOUTHEAST SOUTH DAKOTA

CITY           SKY/WX    TMP DP  RH WIND       PRES   REMARKS
SIOUX FALLS    PTCLDY    15   9  76 NE6       30.27R WCI   6
HURON          PTCLDY    12   9  87 E3        30.26S
MITCHELL       PTCLDY    17  12  80 SE6       30.27R WCI   9
YANKTON        CLEAR     18  10  73 NE3       30.29R
$$

ABBREVIATIONS USED IN REMARKS
   TC - TEMPERATURE IN CELSIUS
  WCI - WIND CHILL INDEX
   HX - HEAT INDEX
  VSB - VISIBILITY




USA.gov is the U.S. government's official web portal to all federal, state and local government web resources and services.